Temp_Advection
nan nan nan nan nan nan nan nan nan nan nan nan nan nan nan nan nan nan nan nan nan nan nan nan nan nan nan nan nan nan nan nan nan nan nan nan nan nan nan nan nan nan nan
nan -0 -0 0 0 0 0 0 0 0 0 0 -0 0 0 0 0 -0 -0 -0 -0 -0 -0 -0 -0 -0 -0 -0 -0 -0 -0 -0 0 0 0 0 -0 -0 -0 0 -0 -0 nan
nan -0 0 0 0 0 0 0 0 0 -0 0 0 -0 -0 -0 -0 -0 -0 -0 -0 -0 -0 0 -0 -0 -0 -0 -0 -0 -0 -0 0 0 0 0 0 -0 0 -0 0 0 nan
nan 0 0 0 0 1 1 0 -0 -0 0 -0 0 -0 -0 -0 -0 -0 0 0 0 -0 -0 -0 -0 -0 -0 -0 -0 -0 -0 -0 -0 0 0 0 0 0 0 0 0 -0 nan
nan 0 0 0 0 0 0 0 -0 -0 -0 -0 -0 -0 -0 -0 -0 0 0 0 0 0 -0 -0 -0 -0 -0 0 0 0 0 -0 -0 -0 0 0 0 0 0 -0 -0 -0 nan
nan 0 0 0 0 -0 -0 -0 -0 -0 -0 -0 -0 -0 -0 0 0 0 0 0 0 0 0 -0 -0 -0 -0 -0 0 0 0 0 0 -0 -0 0 0 0 -0 -0 -0 -0 nan
nan 0 1 0 0 -0 0 0 -0 -0 -0 -0 -0 0 0 0 0 0 0 0 0 0 0 -0 -0 -0 -0 -0 -0 0 0 0 0 0 0 0 0 0 -0 -0 -0 -0 nan
nan 1 1 0 0 0 0 0 -0 -0 -0 -0 -0 -0 0 0 0 0 0 0 0 0 0 0 -0 -0 0 -0 -0 -0 0 0 0 0 0 0 0 0 0 -0 0 -0 nan
nan 1 0 0 0 0 0 0 -0 0 0 0 0 0 0 0 0 0 0 0 0 0 0 0 -0 0 0 0 -0 -0 -0 0 0 -0 0 0 0 -0 -0 -0 -0 -0 nan
nan 0 -0 0 0 0 0 0 0 0 0 0 0 0 0 0 0 0 -0 0 0 -0 0 -0 -0 0 0 0 0 -0 -0 -0 -0 -0 0 0 -0 -0 0 0 -0 -0 nan
nan 0 -0 0 1 0 -0 0 0 0 0 0 0 0 0 0 0 0 0 0 0 -0 0 -0 -0 -0 -0 -0 -0 -0 0 -0 -0 -0 -0 -0 -0 -0 -0 -0 -0 -0 nan
nan 0 1 0 1 -0 0 0 0 0 0 0 0 0 0 0 0 0 0 0 0 -0 0 0 -0 -0 -0 -0 -0 -0 0 -0 -0 -0 -0 -0 -0 -0 -0 -0 0 0 nan
nan -0 0 0 0 0 0 0 0 0 0 0 0 0 0 0 0 0 0 0 0 -0 -0 0 -0 -0 0 0 -0 -0 -0 -0 -0 -0 -0 0 0 0 0 0 0 0 nan
nan -0 -0 0 -0 1 0 0 0 0 -0 0 0 0 0 0 0 0 0 0 -0 -0 -0 -0 0 -0 0 0 -0 -0 -0 -0 -0 -0 -0 0 0 0 0 -0 -0 -0 nan
nan 0 0 0 -0 0 0 0 0 0 0 0 0 0 0 0 0 0 0 0 0 -0 -0 -0 0 0 0 0 0 -0 -0 -0 -0 -0 -0 -0 -0 -0 -0 -0 -0 -0 nan
nan 0 1 0 -0 0 -0 0 0 0 0 0 0 -0 0 0 0 0 0 -0 0 -0 -0 -0 0 0 0 0 0 0 -0 -0 -0 -0 -0 -0 -0 -0 -0 -0 -0 -0 nan
nan 2 1 0 0 -0 -0 0 0 0 0 0 0 0 -0 0 0 0 0 -0 -0 0 -0 -0 -0 -0 0 0 0 0 -0 -0 -0 -0 -0 -0 -0 -0 -0 -0 -0 -0 nan
nan 1 2 1 1 1 0 0 0 0 0 0 0 0 0 0 0 0 0 0 -0 0 -0 -0 0 0 -0 0 0 0 -0 -0 -0 -0 -0 -0 -0 -0 -0 -0 -0 -0 nan
nan 0 1 2 1 1 1 1 1 0 0 0 0 0 0 0 0 0 0 0 0 0 0 -0 0 0 0 0 0 0 0 0 -0 -0 -0 -0 -0 -0 -0 -0 -0 -0 nan
nan 1 1 0 -0 1 2 1 1 1 0 0 0 0 0 0 0 0 0 0 0 0 0 0 0 0 0 0 0 0 0 0 0 -0 -0 -0 -0 -0 -0 -0 -0 -0 nan
nan 0 0 -1 1 -0 1 0 0 1 0 0 0 0 0 0 0 0 0 0 0 0 0 0 0 0 0 0 0 0 0 0 0 0 0 0 -0 -0 -0 -0 -0 -0 nan
nan 0 0 1 0 -0 -2 -0 0 1 1 0 0 0 0 0 0 0 0 0 0 0 0 0 0 0 0 0 0 0 0 0 0 0 0 0 0 -0 -0 -0 -0 -0 nan
nan 0 0 -0 -0 0 -1 0 -0 0 1 0 0 0 0 0 0 0 0 0 0 0 0 0 0 0 0 0 0 0 0 0 0 0 0 0 0 0 0 -0 -0 -0 nan
nan 0 0 0 0 -0 1 1 -0 0 0 -0 0 0 0 0 0 0 0 0 0 0 0 0 0 0 0 0 0 0 0 0 0 0 0 0 0 0 0 0 0 -0 nan
nan 0 0 0 0 -0 1 -0 0 -0 -1 -0 0 0 -0 -0 -0 0 -0 0 0 -0 0 0 0 -0 0 0 0 0 0 0 0 0 0 0 0 0 0 0 0 0 nan
nan nan nan nan nan nan nan nan nan nan nan nan nan nan nan nan nan nan nan nan nan nan nan nan nan nan nan nan nan nan nan nan nan nan nan nan nan nan nan nan nan nan nan
Wind_Speed
28 28 27 26 25 24 23 22 19 17 16 15 14 14 13 12 10 9 8 7 6 4 3 3 2 2 3 3 4 5 7 9 9 9 11 11 11 10 9 10 11 10 9
35 31 29 28 26 24 23 21 19 18 16 18 16 13 9 9 8 6 5 4 3 3 3 2 2 2 3 3 3 5 6 8 9 9 9 10 9 7 8 7 7 7 7
35 33 31 29 27 25 23 20 19 18 19 16 11 9 6 6 6 6 6 5 4 3 3 4 4 4 4 4 4 5 7 9 9 9 10 7 8 4 4 5 6 6 6
37 35 33 30 28 26 23 21 21 21 16 11 8 6 5 5 6 6 6 6 5 4 4 4 5 7 6 7 7 8 10 12 10 10 11 6 4 4 2 3 2 4 5
36 35 33 31 27 25 24 22 20 16 13 10 8 7 6 6 7 7 7 6 5 5 4 4 6 7 9 9 9 11 11 11 10 9 7 5 2 3 6 5 4 4 5
38 36 34 30 28 26 23 20 17 14 12 10 8 8 8 8 8 8 7 7 5 5 5 6 7 8 11 12 12 13 12 10 8 7 6 5 5 9 10 8 8 7 4
39 37 35 32 29 26 22 19 16 13 12 10 9 9 9 9 8 8 7 6 6 6 6 7 9 11 13 13 13 13 12 14 12 13 13 13 13 10 10 9 6 7 6
41 39 34 31 28 24 21 18 15 13 12 11 11 10 10 9 8 8 7 6 5 6 8 10 12 15 16 15 14 14 12 10 9 12 12 13 10 7 2 3 3 1 4
41 39 34 31 28 24 21 18 16 15 13 12 12 11 10 10 9 8 7 7 7 9 10 12 16 20 16 15 14 12 10 7 4 7 9 8 8 8 9 7 4 4 3
41 38 35 32 29 26 23 19 17 15 15 14 13 12 11 10 9 8 8 9 9 11 13 16 21 22 16 13 11 10 6 4 3 5 8 6 7 5 6 3 2 5 7
40 39 37 34 31 27 24 21 18 16 16 15 14 13 12 11 10 10 9 10 11 13 16 18 20 20 15 12 8 6 6 6 8 14 16 14 13 10 9 7 7 5 7
43 43 39 36 31 29 25 20 19 18 17 15 14 13 13 12 11 11 12 12 12 15 16 18 18 17 12 10 9 9 9 10 11 11 13 9 9 5 4 3 3 5 7
43 41 39 35 32 28 25 22 20 19 19 18 15 14 12 12 11 12 12 12 12 13 13 15 15 13 10 9 9 10 10 10 8 7 7 4 4 5 5 3 9 9 11
43 39 37 34 30 26 24 22 21 20 19 18 16 15 13 13 12 12 11 11 12 12 13 13 12 12 10 9 9 9 9 9 8 6 4 4 6 7 8 9 9 10 10
42 41 37 33 28 26 24 23 22 21 19 17 15 14 12 12 12 13 13 12 13 13 13 12 11 10 9 8 8 8 9 8 7 7 6 6 6 6 7 8 9 9 9
44 41 36 31 27 26 26 23 22 20 18 17 15 14 13 12 12 13 12 13 13 13 12 12 11 9 8 7 6 7 7 7 6 5 5 5 5 6 6 6 6 7 8
29 36 36 31 26 25 25 23 21 19 17 15 14 12 12 12 12 12 12 12 12 12 11 10 10 9 7 6 5 4 4 5 4 4 3 3 4 5 4 4 5 6 7
20 30 35 31 27 25 24 21 19 17 16 15 14 12 12 11 11 12 12 12 12 11 11 10 9 8 7 5 3 3 1 2 2 2 2 2 2 4 3 4 4 5 6
33 22 30 35 31 26 23 20 18 16 15 15 15 13 12 11 11 11 11 12 12 11 11 10 9 8 6 4 4 2 2 1 2 1 1 1 2 4 3 4 4 5 6
28 36 39 33 31 30 23 20 18 17 16 15 14 14 13 12 12 12 12 12 12 11 10 9 8 7 6 5 5 5 4 3 3 3 2 2 3 4 5 5 5 6 6
24 30 31 30 33 28 28 23 16 16 16 15 15 14 14 13 12 12 12 12 11 11 10 10 8 7 6 5 5 6 7 6 5 5 3 2 3 6 6 7 7 7 8
16 23 25 25 24 20 23 22 21 12 11 11 12 12 12 11 11 11 11 11 11 11 10 9 7 7 6 5 4 5 4 8 8 7 6 5 4 5 6 7 8 9 9
16 19 21 28 24 22 23 18 18 19 12 13 14 13 11 11 10 10 10 10 10 10 9 9 8 7 6 5 4 4 3 3 4 7 9 7 7 7 8 8 8 10 11
18 17 16 23 26 28 25 24 25 22 18 13 10 10 10 11 9 8 9 9 10 10 9 9 8 7 7 6 6 7 7 7 4 4 8 9 10 9 9 11 12 13 13
18 18 19 22 27 28 28 23 23 22 17 12 10 12 11 9 8 9 10 10 10 9 9 9 9 8 8 8 7 8 8 8 9 9 7 7 9 9 11 12 14 14 14
16 19 21 23 26 29 27 26 25 26 24 22 21 16 11 10 10 11 11 11 11 10 10 11 10 9 9 9 10 10 10 9 9 9 10 11 12 13 13 13 15 15 14
Wind_Direction
173 169 164 161 158 154 152 150 147 144 143 141 138 134 138 141 138 139 145 154 165 183 195 186 189 175 153 142 135 121 111 108 107 103 100 91 79 65 63 68 68 65 60
163 167 163 161 157 154 151 150 148 147 145 142 145 152 144 141 150 158 169 184 201 205 196 183 170 153 147 147 139 135 136 126 125 120 109 88 84 67 61 66 69 66 59
162 164 163 161 157 155 154 153 152 147 148 154 149 157 165 172 173 171 168 162 160 158 150 139 126 116 118 125 130 139 144 146 139 125 107 111 81 42 67 56 59 55 57
163 164 163 162 160 158 158 156 153 159 158 162 168 178 182 174 165 157 150 143 139 135 128 120 114 111 111 115 120 124 135 150 152 135 119 117 102 63 58 56 44 38 42
166 165 165 163 160 161 157 159 164 167 172 179 184 181 177 169 157 149 141 136 133 130 123 114 110 112 116 120 120 115 124 146 165 164 153 125 128 37 62 59 56 44 41
168 167 166 163 167 168 167 165 167 172 180 183 181 175 168 162 155 149 142 138 135 129 121 118 116 120 126 125 120 117 116 118 134 125 117 120 94 80 84 81 80 80 78
169 168 166 167 172 172 170 169 170 174 179 179 174 168 164 160 153 147 141 137 138 132 125 119 121 130 134 132 121 119 109 108 104 104 103 108 95 101 91 92 101 75 69
171 169 167 171 172 174 172 171 173 174 176 175 168 163 161 156 150 145 140 134 133 124 121 119 121 133 141 137 130 125 122 119 102 116 110 106 100 92 159 99 99 109 69
173 168 169 172 174 176 174 175 176 174 172 169 164 161 159 152 148 144 137 130 125 125 122 121 125 134 147 142 142 144 141 141 111 130 137 115 110 98 84 93 78 60 38
172 169 171 175 175 175 175 177 177 173 168 165 163 160 157 151 149 142 137 130 133 127 124 125 130 137 148 140 134 137 147 178 134 125 154 129 119 106 95 91 9 11 48
175 175 179 177 176 177 179 177 174 171 167 167 165 160 159 153 150 145 140 134 139 130 128 131 135 144 154 151 148 132 111 108 114 107 93 96 95 96 93 89 80 68 40
178 180 182 179 178 181 180 177 175 172 170 170 163 160 156 152 153 147 141 141 141 137 135 134 138 141 147 135 117 99 91 94 122 124 123 130 96 117 120 111 53 26 42
179 184 182 178 182 178 178 177 175 173 173 169 163 163 158 151 152 145 142 142 139 135 138 139 138 135 133 116 103 95 86 96 116 128 119 76 42 47 48 32 46 44 37
181 187 186 182 184 178 181 180 179 178 176 171 167 164 161 155 157 153 151 150 146 140 141 142 137 134 127 113 107 99 94 93 101 106 95 75 62 58 55 51 48 42 35
183 184 189 187 189 182 184 183 181 181 181 176 173 166 163 165 165 159 161 157 153 148 143 145 143 138 129 120 111 103 99 99 99 102 97 85 73 64 56 50 45 41 35
184 184 183 187 193 189 186 186 182 182 184 182 179 172 172 173 170 167 167 163 157 154 152 148 144 143 138 127 118 108 104 101 100 97 91 82 73 63 59 55 47 38 28
173 188 190 182 190 190 184 183 182 182 184 188 185 183 183 180 175 172 173 166 165 161 162 156 152 149 145 137 128 108 98 98 100 100 94 79 71 49 44 43 36 30 22
256 173 173 179 187 188 185 182 181 181 184 190 191 190 190 192 187 178 177 172 170 167 167 167 166 163 159 155 143 118 92 71 92 88 86 83 74 20 16 11 11 9 7
175 219 190 180 177 180 182 182 184 185 189 194 193 196 197 195 194 183 184 180 175 175 177 173 174 171 169 183 189 195 209 271 308 1 44 38 29 357 0 346 339 346 347
197 198 200 186 176 174 178 183 182 182 187 192 196 197 198 200 198 193 190 188 182 182 182 184 185 184 177 193 213 229 229 244 262 288 299 326 336 347 340 346 331 331 334
204 201 197 208 201 181 174 179 182 187 187 191 193 200 202 200 199 197 198 195 190 186 189 190 194 197 196 205 222 229 235 234 242 244 251 280 321 326 333 335 332 333 332
215 217 212 203 198 180 190 180 175 183 195 195 196 198 205 208 206 205 202 202 199 196 198 201 203 211 216 220 225 241 237 232 236 230 248 253 288 304 318 325 329 332 331
217 221 222 210 202 196 198 204 207 181 199 203 206 202 205 206 211 210 211 209 212 210 210 211 217 225 230 239 252 242 256 250 218 247 243 241 270 293 302 309 316 321 323
221 222 220 211 205 195 200 199 206 196 196 213 222 223 218 215 219 218 222 220 225 223 223 230 234 244 249 246 254 259 256 260 262 270 233 242 249 264 272 298 303 308 311
224 222 216 215 212 214 199 200 208 195 189 199 222 227 238 230 232 232 233 230 234 242 244 250 250 255 262 264 259 261 261 260 263 264 273 244 247 253 275 284 291 292 296
225 226 224 212 211 213 213 209 211 203 199 206 204 219 234 227 226 236 237 239 241 247 258 263 265 270 272 270 267 264 259 258 260 261 269 279 277 279 284 290 289 282 283
Height
1501 1505 1510 1513 1516 1519 1521 1524 1526 1527 1529 1530 1532 1533 1534 1534 1535 1536 1537 1537 1538 1538 1538 1538 1538 1538 1538 1539 1539 1539 1540 1540 1540 1540 1540 1541 1541 1541 1541 1541 1540 1540 1540
1494 1502 1508 1512 1515 1518 1521 1524 1526 1528 1529 1531 1532 1533 1534 1535 1535 1536 1536 1537 1537 1537 1537 1537 1537 1537 1537 1538 1538 1538 1539 1539 1539 1540 1540 1541 1541 1542 1542 1542 1541 1541 1541
1494 1500 1506 1511 1514 1517 1520 1523 1526 1528 1530 1531 1532 1533 1534 1535 1535 1535 1536 1536 1536 1536 1536 1536 1536 1537 1537 1537 1537 1537 1538 1539 1539 1540 1540 1541 1541 1542 1542 1542 1542 1542 1542
1493 1499 1505 1510 1513 1516 1519 1522 1525 1527 1529 1531 1532 1532 1533 1533 1534 1534 1535 1535 1535 1536 1536 1536 1536 1536 1536 1536 1537 1537 1538 1538 1539 1540 1541 1542 1542 1542 1542 1542 1542 1542 1542
1493 1498 1503 1509 1513 1516 1518 1521 1524 1527 1528 1530 1531 1531 1532 1532 1533 1533 1534 1535 1535 1535 1535 1536 1536 1536 1535 1536 1536 1537 1538 1539 1540 1541 1541 1542 1542 1542 1542 1542 1542 1542 1542
1491 1497 1502 1508 1512 1515 1518 1520 1523 1525 1527 1529 1530 1530 1531 1532 1533 1533 1534 1534 1535 1535 1535 1535 1536 1536 1536 1536 1537 1538 1539 1540 1540 1541 1542 1542 1543 1542 1542 1543 1543 1542 1542
1490 1496 1501 1506 1510 1514 1517 1520 1522 1524 1526 1527 1528 1530 1531 1531 1532 1533 1534 1534 1534 1535 1535 1535 1536 1536 1536 1536 1538 1539 1540 1541 1541 1542 1542 1543 1544 1543 1543 1544 1543 1543 1543
1487 1494 1499 1504 1508 1512 1515 1518 1520 1523 1525 1526 1527 1529 1530 1531 1532 1533 1533 1534 1534 1535 1535 1535 1536 1536 1536 1537 1539 1541 1542 1542 1543 1543 1544 1544 1544 1544 1545 1545 1544 1543 1544
1488 1493 1497 1501 1506 1511 1514 1517 1519 1521 1523 1525 1527 1528 1530 1530 1531 1532 1533 1534 1534 1535 1535 1535 1536 1537 1536 1538 1540 1542 1543 1543 1544 1544 1544 1545 1546 1546 1545 1545 1544 1544 1543
1487 1492 1496 1500 1504 1508 1512 1515 1517 1519 1522 1524 1526 1528 1529 1530 1531 1532 1533 1533 1535 1535 1535 1536 1537 1538 1537 1539 1540 1542 1543 1543 1544 1544 1545 1545 1546 1546 1546 1545 1545 1544 1543
1485 1489 1493 1496 1501 1506 1510 1513 1516 1518 1521 1523 1525 1527 1529 1530 1531 1531 1533 1534 1535 1536 1536 1537 1538 1539 1539 1540 1541 1542 1543 1543 1543 1545 1545 1547 1547 1546 1546 1545 1545 1544 1543
1483 1486 1490 1493 1499 1503 1507 1512 1515 1517 1519 1522 1524 1526 1528 1530 1531 1531 1532 1534 1535 1536 1538 1538 1539 1539 1540 1541 1541 1542 1542 1543 1544 1545 1545 1546 1547 1546 1546 1545 1544 1544 1543
1481 1488 1489 1492 1496 1501 1506 1510 1513 1516 1518 1521 1524 1526 1528 1529 1531 1532 1533 1534 1536 1537 1539 1539 1540 1540 1540 1541 1542 1543 1543 1544 1545 1546 1546 1547 1546 1546 1546 1545 1544 1544 1543
1476 1484 1488 1492 1496 1501 1505 1509 1513 1515 1518 1521 1523 1525 1528 1529 1531 1532 1534 1535 1537 1538 1539 1540 1541 1541 1542 1541 1543 1544 1544 1545 1546 1547 1547 1547 1547 1546 1546 1546 1545 1545 1544
1472 1480 1487 1491 1495 1500 1504 1508 1512 1515 1517 1520 1523 1525 1527 1529 1531 1532 1534 1535 1537 1539 1540 1541 1541 1542 1543 1543 1543 1544 1545 1546 1547 1547 1548 1548 1547 1547 1547 1547 1546 1546 1545
1470 1477 1485 1490 1495 1499 1503 1507 1511 1515 1518 1520 1523 1525 1527 1529 1531 1533 1533 1535 1537 1538 1540 1542 1542 1543 1544 1544 1544 1545 1545 1546 1547 1548 1548 1548 1548 1548 1547 1547 1546 1546 1546
1474 1476 1482 1489 1494 1499 1503 1506 1510 1514 1518 1521 1524 1526 1528 1529 1531 1533 1534 1535 1538 1538 1540 1541 1542 1543 1544 1545 1546 1545 1546 1547 1547 1548 1548 1548 1548 1548 1548 1548 1547 1546 1546
1470 1473 1482 1487 1493 1497 1502 1505 1509 1513 1516 1520 1523 1526 1528 1530 1532 1533 1535 1535 1537 1538 1540 1541 1542 1542 1544 1545 1546 1546 1546 1547 1547 1547 1548 1548 1548 1548 1548 1548 1547 1547 1546
1474 1476 1478 1485 1490 1496 1501 1504 1507 1512 1516 1519 1522 1526 1528 1530 1532 1533 1535 1536 1536 1538 1540 1541 1542 1542 1542 1545 1546 1546 1546 1547 1546 1546 1547 1548 1548 1548 1548 1547 1547 1546 1546
1477 1477 1479 1484 1488 1491 1500 1504 1508 1510 1515 1519 1522 1525 1527 1529 1531 1533 1534 1536 1536 1538 1539 1541 1542 1543 1542 1543 1545 1546 1546 1546 1546 1546 1546 1546 1548 1548 1548 1547 1547 1546 1545
1476 1480 1483 1478 1477 1488 1488 1502 1505 1510 1514 1518 1521 1526 1527 1528 1531 1532 1534 1536 1537 1537 1540 1540 1541 1542 1542 1542 1543 1544 1545 1545 1546 1546 1545 1545 1546 1546 1546 1546 1546 1545 1544
1476 1481 1485 1489 1486 1484 1495 1496 1501 1510 1515 1519 1522 1525 1528 1529 1531 1532 1534 1536 1537 1537 1539 1541 1541 1542 1542 1542 1542 1544 1544 1545 1544 1544 1545 1544 1544 1545 1544 1543 1544 1543 1542
1471 1476 1481 1483 1486 1488 1491 1496 1498 1501 1514 1518 1523 1522 1526 1528 1530 1532 1534 1536 1538 1538 1539 1540 1540 1541 1541 1541 1541 1543 1544 1543 1543 1543 1543 1542 1543 1543 1543 1543 1542 1541 1540
1469 1473 1477 1481 1484 1486 1491 1498 1497 1506 1515 1518 1520 1523 1525 1527 1529 1529 1534 1535 1538 1538 1538 1539 1539 1540 1540 1539 1540 1542 1541 1542 1542 1542 1541 1540 1540 1540 1540 1540 1541 1540 1538
1469 1472 1475 1478 1482 1486 1489 1490 1494 1498 1507 1516 1518 1522 1525 1524 1526 1529 1532 1533 1536 1537 1537 1539 1538 1539 1538 1539 1537 1539 1540 1539 1540 1541 1539 1539 1538 1539 1538 1537 1536 1536 1535
1467 1470 1474 1476 1480 1484 1487 1490 1494 1496 1502 1505 1509 1513 1520 1520 1523 1527 1529 1531 1533 1533 1536 1538 1537 1537 1537 1536 1536 1536 1537 1536 1537 1536 1537 1538 1536 1536 1535 1533 1532 1531 1530